Home > Weather > Toulouse > Past weeks

Flag for France Past Weather in Toulouse, Midi-Pyrénées, France — Yesterday and Last 2 Weeks

Now
75 °F

Passing clouds.


Feels Like: 77 °F
Forecast: 62 / 87 °F
Wind: 6 mph from Northwest

Location: Toulouse / Blagnac

Current Time: Jul 26, 2016 at 12:04:15 AM

Latest Report: Jul 25, 2016 at 11:30 PM


Visibility: N/A

Pressure: 30.15 "Hg

Humidity: 61%

Dew Point: 61 °F

Location of ToulouseLocation

Past Weather in Toulouse — Graph

°F

Toulouse Temperature Yesterday

Maximum temperature yesterday: 84 °F (at 4:00 PM)
Minimum temperature yesterday: 64 °F (at 5:30 AM)
Average temperature yesterday: 75 °F

High & Low Weather Summary for the Past Weeks

 TemperatureHumidityPressure
High91 °F (Jul 18, 4:30 PM)100% (Jul 12, 5:30 AM)30.36 "Hg (Jul 12, 5:30 AM)
Low52 °F (Jul 15, 6:30 AM)20% (Jul 17, 8:30 PM)29.95 "Hg (Jul 19, 6:30 PM)
Average71 °F64%30.12 "Hg
* Reported Jul 10 10:00 PM — Jul 25 10:30 PM, Toulouse, Weather by CustomWeather, © 2016

Note: Actual official high and low records may vary slightly from our data, if they occured in-between our weather recording intervals... More about our weather records

Advertising

Toulouse Weather History for the Previous 24 Hours

Scroll right to see more
 ConditionsComfort  
Time TempWeatherWind HumidityBarometerVisibility
10:30 PM
Mon, Jul 25
77 °FClear.5 mph57%30.15 "Hg10 mi
10:00 PM77 °FSunny.7 mph57%30.15 "Hg10 mi
9:30 PM79 °FSunny.7 mph54%30.12 "Hg10 mi
9:00 PM81 °FSunny.9 mph51%30.12 "Hg10 mi
8:30 PM82 °FSunny.10 mph48%30.12 "Hg10 mi
8:00 PM82 °FPassing clouds.10 mph45%30.12 "HgN/A
7:30 PM84 °FPassing clouds.12 mph45%30.12 "HgN/A
7:00 PM84 °FPassing clouds.10 mph45%30.12 "HgN/A
6:30 PM84 °FPassing clouds.10 mph45%30.12 "HgN/A
6:00 PM84 °FPassing clouds.9 mph43%30.12 "HgN/A
5:30 PM84 °FPassing clouds.9 mph45%30.12 "HgN/A
5:00 PM84 °FPassing clouds.8 mph48%30.12 "HgN/A
4:30 PM84 °FPassing clouds.10 mph45%30.12 "HgN/A
4:00 PM84 °FPassing clouds.10 mph48%30.12 "HgN/A
3:30 PM82 °FPassing clouds.8 mph51%30.12 "HgN/A
3:00 PM82 °FPassing clouds.9 mph51%30.15 "HgN/A
2:30 PM81 °FPassing clouds.9 mph51%30.15 "HgN/A
2:00 PM81 °FPassing clouds.8 mph54%30.15 "HgN/A
1:30 PM79 °FPassing clouds.9 mph54%30.15 "HgN/A
1:00 PM79 °FPassing clouds.10 mph54%30.15 "HgN/A
12:30 PM77 °FClear.9 mph61%30.18 "HgN/A
12:00 PM77 °FPassing clouds.9 mph57%30.18 "HgN/A
11:30 AM75 °FSunny.10 mph57%30.18 "Hg10 mi
11:00 AM73 °FPassing clouds.8 mph65%30.18 "HgN/A
10:30 AM73 °FPassing clouds.9 mph61%30.18 "HgN/A
10:00 AM72 °FPassing clouds.9 mph65%30.18 "HgN/A
9:30 AM70 °FSunny.8 mph69%30.18 "Hg10 mi
9:00 AM68 °FSunny.10 mph73%30.18 "Hg10 mi
8:30 AM66 °FSunny.10 mph78%30.18 "Hg10 mi
8:00 AM66 °FSunny.12 mph78%30.18 "Hg10 mi
7:30 AM64 °FClear.9 mph83%30.15 "Hg10 mi
7:00 AM64 °FClear.9 mph83%30.15 "Hg10 mi
6:30 AM64 °FPassing clouds.6 mph83%30.15 "HgN/A
6:00 AM64 °FClear.7 mph83%30.15 "Hg10 mi
5:30 AM64 °FClear.8 mph83%30.15 "Hg10 mi
5:00 AM66 °FClear.7 mph78%30.15 "Hg10 mi
4:30 AM66 °FClear.6 mph78%30.15 "Hg10 mi
4:00 AM66 °FClear.5 mph78%30.15 "Hg10 mi
3:30 AM66 °FClear.5 mph78%30.15 "Hg10 mi
3:00 AM68 °FClear.5 mph73%30.15 "Hg10 mi
2:30 AM68 °FClear.6 mph73%30.15 "Hg10 mi
2:00 AM70 °FClear.6 mph69%30.15 "Hg10 mi
1:30 AM70 °FClear.5 mph69%30.15 "Hg10 mi
1:00 AM72 °FClear.5 mph61%30.15 "Hg10 mi
12:30 AM72 °FClear.5 mph61%30.15 "Hg10 mi
12:00 AM73 °FClear.6 mph57%30.15 "Hg10 mi
Weather by CustomWeather, © 2016

See weather overviewHow to use our weather pages